カタログに戻る

THORAD DELTA 1 DEB

運用中SSO
NORAD 8136·DEBRIS·🇺🇸 United States

打ち上げ Nov 15, 1974 から Vandenberg Space Force Base

Loading…

次のパス (今後24時間)

TLE

最新Source: Space-Track

元期: Sep 14, 2026, 09:50 UTC

1 08136U 74089E   26257.40985779 -.00000042  00000-0  28649-5 0  9998
2 08136 101.0745 245.1721 0073619 233.5054 287.1255 12.64810014117060

AllMySatでTHORAD DELTA 1 DEBをリアルタイム追跡

Download on the App Store